Lapse_Rate
3.8 5.0 5.9 2.5 6.4 6.5 6.5 6.5 6.5 6.5 6.5 6.5 6.9 6.8 6.5 6.6 6.5 6.5 7.9 5.5 5.1 5.0 5.4 5.6 5.6 5.7 5.9 5.8 5.6 5.8 5.8 5.6 5.4 5.3 5.2 5.1 5.2 5.3 5.5 5.5 5.7 6.3 6.5 6.4 6.3 6.6 6.5 6.4 5.9
5.3 7.9 2.3 4.6 6.5 6.5 6.5 6.5 6.5 6.5 6.8 7.0 7.2 5.1 6.8 6.5 7.8 7.7 6.3 6.0 5.8 5.2 5.2 5.4 5.4 5.4 5.5 5.6 5.8 5.8 5.9 5.7 5.8 5.7 5.5 5.4 5.4 5.5 5.7 5.8 6.0 6.5 6.5 6.4 6.8 7.0 6.5 6.2 6.1
5.3 7.9 4.8 6.5 6.5 6.5 6.5 6.5 6.5 6.6 7.2 7.2 6.9 5.5 7.0 6.9 7.9 7.8 6.7 6.9 6.1 5.9 5.3 5.5 5.5 5.3 5.4 5.5 5.8 5.8 5.6 6.0 6.0 5.8 5.7 5.7 5.7 5.8 5.9 6.1 6.3 6.4 6.6 6.6 6.8 6.9 6.6 6.3 6.2
4.9 2.8 4.6 6.5 6.5 6.5 6.5 6.5 6.4 6.6 7.1 7.4 6.7 6.5 6.0 8.3 8.0 8.3 7.7 7.2 7.1 6.3 5.0 5.5 5.5 5.5 5.6 5.5 6.1 6.0 5.7 5.8 6.0 6.0 6.0 6.0 6.0 6.2 6.1 6.1 6.3 6.5 6.4 6.5 6.3 6.4 6.6 6.5 6.5
1.1 4.8 6.5 6.5 6.5 6.5 6.5 6.6 6.1 6.5 6.8 7.0 5.0 6.6 6.6 6.6 7.0 8.6 7.8 8.0 6.6 5.1 5.1 5.3 5.6 5.6 5.7 5.9 6.0 5.9 5.7 5.9 5.9 5.9 6.0 6.0 6.2 6.3 6.2 6.2 6.4 6.4 6.3 6.4 6.0 6.0 6.0 6.1 6.4
4.8 5.4 6.5 6.5 6.5 6.5 6.5 6.3 6.9 6.6 6.9 6.8 6.8 6.3 5.3 7.2 8.0 8.7 8.6 7.9 5.8 4.4 4.3 5.0 5.5 5.8 5.9 6.2 5.8 5.9 5.5 5.9 6.1 6.1 6.0 6.0 6.0 6.0 6.1 6.4 6.3 6.3 6.3 6.2 5.9 5.9 6.0 6.2 6.2
5.8 6.5 6.5 6.5 6.5 6.5 6.5 7.2 6.5 6.7 6.7 6.6 7.3 6.5 4.7 7.6 7.9 7.8 6.7 5.6 5.4 5.0 3.9 4.6 5.3 5.9 6.1 5.7 5.8 5.8 5.6 6.0 5.9 5.9 5.9 5.9 5.9 5.9 6.0 6.0 6.0 6.1 6.0 6.0 6.0 6.1 6.1 5.9 6.0
3.8 6.3 6.5 6.5 6.5 6.5 6.6 7.0 7.2 7.0 6.7 5.6 7.2 6.4 6.1 7.1 7.5 7.1 6.2 6.1 5.4 4.6 3.9 4.3 4.6 5.0 5.0 5.3 5.9 5.9 6.0 5.9 5.9 5.7 5.7 5.9 5.9 6.0 6.1 5.6 5.4 5.6 6.0 6.2 6.2 6.3 6.1 6.0 6.1
4.9 6.5 6.5 6.5 6.5 6.5 6.5 6.5 7.2 7.5 7.2 6.9 5.7 6.5 7.0 7.4 7.5 6.4 6.2 5.2 4.5 4.7 5.1 5.7 5.0 4.6 4.8 5.0 5.7 5.9 6.1 6.0 5.8 5.6 5.6 5.9 5.7 5.9 6.0 5.2 5.3 5.8 6.0 6.0 6.1 5.9 5.5 5.3 4.9
5.8 6.5 6.5 6.5 6.5 6.5 6.6 6.3 6.7 6.0 6.8 6.6 5.0 4.8 7.9 7.1 6.4 5.4 4.4 4.7 4.6 4.4 5.4 5.3 5.1 4.4 4.6 5.6 5.0 5.2 5.6 5.6 5.2 5.0 5.2 5.6 5.3 6.1 5.5 5.6 5.3 5.7 5.7 5.8 5.9 5.8 4.1 4.3 3.4
6.3 6.5 6.5 6.4 6.3 6.3 6.7 6.9 7.2 6.7 6.5 6.1 6.0 6.1 7.7 8.3 6.3 5.1 4.5 4.1 3.7 4.7 6.6 6.1 5.9 5.4 4.9 4.6 4.3 4.6 5.2 5.1 4.6 5.1 5.6 5.8 5.6 5.5 6.1 5.1 4.8 5.0 5.3 5.3 5.8 5.3 3.0 2.8 2.7
6.5 6.5 6.6 6.4 6.6 6.7 6.5 7.1 6.8 5.3 5.4 6.7 6.7 7.8 7.6 7.1 6.3 5.9 5.9 4.3 3.7 4.4 6.1 6.7 5.9 5.5 5.7 5.3 5.0 5.1 5.1 5.9 5.1 5.7 6.2 5.7 5.2 5.7 5.4 4.7 4.1 4.3 4.7 4.9 5.4 4.9 4.2 3.7 3.8
6.5 6.5 6.6 6.4 6.4 6.3 7.1 6.6 6.0 6.7 5.1 6.1 6.7 7.6 7.2 6.9 6.6 6.5 6.4 4.3 4.1 4.9 5.8 6.2 6.3 5.3 5.7 5.8 5.5 5.3 6.1 6.0 6.2 5.9 6.1 6.8 5.9 5.4 6.8 6.0 5.5 5.1 4.2 4.3 4.2 3.3 2.8 3.0 2.2
6.0 6.3 6.0 6.1 6.5 6.4 6.4 6.6 6.7 6.2 5.3 6.2 5.8 6.6 6.9 6.2 6.0 7.0 7.2 5.3 5.5 6.3 5.2 5.9 6.0 5.4 6.3 4.7 4.6 4.8 6.2 6.2 5.9 6.2 6.6 6.8 6.6 6.0 6.0 5.9 6.5 4.8 5.6 5.0 2.5 2.1 2.2 0.9 1.6
6.0 6.5 6.5 6.0 6.5 6.5 6.4 6.5 6.5 4.0 4.6 5.6 6.1 6.2 5.7 6.0 5.5 6.6 6.5 6.2 6.3 6.2 6.3 6.6 6.2 5.3 5.5 5.1 5.1 5.4 5.9 6.6 4.8 5.9 6.4 6.6 7.2 6.5 6.2 4.7 4.1 4.5 6.1 3.8 2.0 1.4 2.3 0.8 1.6
6.5 6.5 6.5 6.5 6.3 6.0 6.3 6.5 6.5 4.5 6.0 5.7 4.3 5.3 6.7 7.0 6.5 6.9 6.9 6.7 6.9 6.8 6.5 6.0 8.0 6.4 5.0 5.3 5.3 5.5 6.1 6.0 5.5 6.1 6.0 7.8 7.2 7.7 5.9 4.4 4.7 5.4 5.0 3.6 1.6 0.6 1.3 0.8 1.6
6.5 6.5 6.5 6.5 6.2 6.5 6.5 6.5 6.3 5.0 6.8 6.4 5.5 3.4 5.6 6.8 6.7 6.7 7.5 6.9 6.6 6.4 6.1 5.6 5.9 6.9 5.2 4.9 5.6 5.6 6.2 5.8 5.9 6.5 6.4 6.8 6.9 7.3 5.6 5.5 4.9 5.2 4.5 3.0 3.4 2.3 1.8 1.6 2.2
6.5 6.5 6.5 6.5 6.5 6.5 6.5 6.5 6.5 5.6 5.3 6.5 6.4 6.0 6.1 6.0 6.9 7.3 7.2 7.3 6.6 5.6 5.8 5.6 5.6 6.3 5.0 4.0 5.0 5.1 6.2 5.3 5.8 6.4 6.5 6.7 6.6 6.7 5.6 5.0 4.9 4.7 3.7 4.2 4.0 3.1 3.9 3.3 1.9
6.5 6.5 6.5 6.5 6.5 6.5 6.5 6.5 6.5 5.0 5.1 5.3 5.6 5.5 6.1 5.7 6.3 6.7 7.5 7.9 7.1 6.2 5.8 5.8 4.7 5.5 5.3 4.8 4.0 4.4 4.9 5.2 5.1 5.5 6.1 6.5 6.8 6.5 5.8 5.6 4.9 4.1 4.1 4.2 4.8 4.8 4.1 4.5 3.9
6.5 6.5 6.5 6.5 6.5 6.5 6.5 6.5 6.5 6.6 5.7 4.4 5.2 6.1 6.0 6.4 6.1 6.1 7.0 7.6 6.9 6.2 5.5 5.6 5.3 4.4 4.7 5.4 4.2 4.3 5.3 4.8 5.5 4.9 6.0 6.5 6.7 6.5 5.9 5.6 5.3 4.8 4.3 4.2 4.9 3.8 3.8 4.3 4.2
6.5 6.5 6.5 6.5 6.5 6.5 6.5 6.5 6.5 6.4 5.2 4.4 4.7 5.8 6.2 6.1 5.6 6.4 7.1 7.3 7.1 5.9 5.4 4.8 4.9 4.2 4.2 4.2 4.0 4.1 5.0 4.3 4.9 5.3 5.0 5.2 6.5 7.2 6.3 6.2 5.2 5.2 4.9 4.0 4.6 4.3 5.1 4.7 4.7
6.5 6.5 6.5 6.5 6.5 6.5 6.5 6.5 6.5 6.5 6.5 6.5 5.7 3.9 6.1 6.5 5.5 6.0 6.4 7.1 6.2 6.1 5.9 5.4 4.8 4.6 4.3 3.3 4.2 4.7 4.5 4.6 4.7 4.5 4.9 5.1 6.2 6.1 6.9 6.2 6.1 5.0 4.4 5.2 4.2 3.7 3.7 3.9 3.8
6.5 6.5 6.5 6.5 6.5 6.5 6.5 6.5 6.5 6.5 6.5 6.5 5.9 3.9 4.9 6.1 6.2 6.3 6.4 6.5 6.8 6.2 6.0 4.7 4.5 4.7 5.0 4.5 3.6 4.8 4.7 4.4 4.7 4.7 4.6 4.6 4.9 5.8 6.4 6.2 5.7 5.4 4.3 5.1 4.3 4.0 4.3 2.9 3.6
6.5 6.5 6.5 6.5 6.5 6.5 6.5 6.5 6.5 6.5 6.5 6.5 5.7 4.3 4.1 6.2 6.3 6.2 6.3 6.7 6.0 5.7 5.3 5.1 4.4 4.5 4.7 4.7 4.2 5.0 4.4 4.8 4.3 4.6 4.0 3.4 3.6 4.5 5.4 5.9 4.8 5.2 4.3 4.6 3.9 3.0 4.0 3.7 3.6
6.5 6.5 6.5 6.5 6.5 6.5 6.5 6.5 6.5 6.5 6.5 6.5 6.6 3.6 3.3 6.3 6.7 6.9 6.3 6.3 5.8 4.9 5.0 5.1 4.8 4.5 4.5 4.9 4.9 4.7 5.0 5.2 4.2 4.5 4.0 4.1 4.5 5.0 5.0 4.8 4.8 4.5 4.5 4.7 3.8 3.6 3.7 3.4 4.6
6.5 6.5 6.5 6.5 6.5 6.5 6.5 6.5 6.5 6.5 5.1 4.3 4.0 3.3 3.4 5.9 6.3 6.5 6.2 5.9 6.4 5.0 5.3 5.3 4.8 4.7 4.8 5.0 4.6 4.4 4.8 5.0 4.9 4.5 4.1 4.7 5.1 4.9 4.7 4.6 4.6 4.3 4.8 5.2 4.9 4.6 4.5 5.3 4.3
6.5 6.5 6.5 6.5 6.5 6.5 6.5 6.5 6.5 6.5 6.5 6.1 5.9 5.8 3.5 5.5 6.5 6.5 6.4 6.2 6.2 5.8 5.6 4.9 4.0 4.3 4.3 4.9 4.9 4.5 4.6 5.1 4.5 4.4 4.4 4.5 4.3 5.2 4.7 4.7 4.7 4.7 4.9 4.4 4.6 4.8 5.2 5.1 4.9
6.5 6.5 6.5 6.5 6.5 6.5 6.5 6.5 6.5 6.5 6.5 6.5 6.6 5.5 3.6 3.1 6.4 6.7 6.6 6.2 6.2 5.6 5.2 5.0 3.6 3.6 4.0 4.8 4.8 5.0 4.8 4.9 5.3 4.1 4.9 4.7 4.6 4.3 3.9 4.0 4.1 4.4 4.4 4.8 4.7 4.9 4.8 5.0 4.6
6.5 6.5 6.5 6.5 6.5 6.5 6.5 6.5 6.5 6.5 6.5 6.5 6.4 6.0 3.4 2.7 6.1 6.3 6.4 6.0 5.9 5.6 5.3 4.9 3.8 3.7 4.0 4.5 4.7 5.1 4.7 5.1 5.3 5.0 4.7 4.5 4.6 4.4 4.3 4.4 4.5 4.6 4.7 5.1 4.6 4.9 5.1 5.3 4.8
6.5 6.5 6.5 6.5 6.5 6.5 6.5 6.5 6.5 6.5 6.5 5.8 4.8 4.0 3.9 3.5 3.8 5.6 5.3 5.3 5.6 5.4 5.3 5.1 4.1 3.8 3.9 4.5 4.8 5.0 5.2 5.5 5.7 5.8 4.5 4.2 4.4 4.4 4.4 4.3 4.5 4.0 4.4 5.1 5.2 4.8 5.9 5.2 5.2
Wind_Speed
1 5 2 5 4 4 4 7 7 8 15 12 14 9 4 5 4 3 12 20 22 15 20 20 22 21 19 18 20 18 16 16 14 13 12 13 11 10 10 9 8 6 6 5 5 7 7 7 7
3 1 7 5 3 4 4 11 10 6 15 22 23 25 6 9 13 17 17 21 20 19 20 19 22 22 21 19 19 19 16 15 15 13 12 11 9 9 8 7 5 4 4 5 6 8 7 8 8
4 13 6 3 3 2 2 9 9 9 13 18 10 16 4 12 19 12 22 23 22 16 20 20 21 21 20 19 18 17 17 14 14 13 12 10 9 8 7 6 4 4 5 6 7 8 7 7 6
5 4 4 3 6 9 2 10 8 11 16 14 8 6 6 21 14 15 26 25 18 17 21 21 21 20 18 19 16 16 16 15 14 13 12 11 10 8 7 6 5 5 6 6 7 7 5 5 6
6 5 1 3 4 11 10 11 4 18 13 17 20 0 5 8 18 25 25 22 21 16 20 19 20 19 17 17 16 16 16 15 14 12 11 10 10 8 7 6 6 7 6 7 6 5 5 4 3
4 3 2 4 6 8 1 8 14 13 8 10 3 7 1 20 19 17 19 21 20 19 19 19 19 18 17 17 17 15 16 14 14 12 13 11 9 8 7 6 7 7 7 7 5 3 3 3 2
8 7 4 6 10 5 13 4 7 13 9 8 11 5 1 15 13 19 20 19 16 21 17 17 16 16 16 15 15 14 14 13 13 13 13 11 10 9 9 9 8 8 8 6 5 3 3 3 3
5 4 8 7 11 4 10 13 23 17 8 11 1 5 5 18 20 19 20 17 17 14 12 13 15 15 15 14 14 14 13 13 14 13 13 12 11 10 10 9 9 9 8 7 6 4 5 7 5
7 4 5 6 14 4 4 9 6 10 9 3 3 2 7 19 19 19 16 14 11 11 12 13 12 15 16 14 13 14 13 12 13 12 12 11 9 10 12 11 11 9 8 9 7 7 6 6 8
4 3 5 5 2 4 21 22 13 4 11 6 4 5 11 23 20 20 17 12 10 9 7 9 10 11 13 12 14 15 13 12 13 12 11 9 11 14 14 14 14 11 11 10 10 8 8 4 9
3 4 5 9 4 8 13 19 4 14 4 5 11 13 18 24 19 17 16 17 11 8 5 12 11 13 11 9 12 11 13 14 15 14 16 15 12 12 14 14 13 13 12 12 12 11 12 12 13
2 5 3 5 4 6 7 16 6 16 9 11 16 19 18 23 21 19 17 16 13 7 7 7 10 9 10 12 10 11 9 11 9 14 15 10 8 7 8 10 13 13 12 3 7 9 14 12 14
4 3 5 7 6 5 19 14 9 7 17 12 10 19 21 15 20 18 19 19 17 13 9 9 8 7 7 9 7 8 8 9 9 9 12 10 8 4 9 10 11 8 12 9 11 7 6 6 12
5 5 7 9 4 5 6 8 8 12 8 11 10 16 19 19 20 13 17 18 17 14 12 10 9 7 7 6 6 5 8 11 9 10 11 10 5 4 5 1 3 9 4 10 14 15 8 10 6
8 6 9 9 4 1 2 0 2 9 12 13 11 12 21 21 19 17 15 16 15 15 13 13 11 7 7 7 7 7 8 9 7 9 12 9 5 6 3 2 4 7 4 9 16 13 14 9 10
12 6 6 6 7 6 3 7 10 15 19 11 22 28 15 19 25 16 15 14 15 15 13 11 13 11 8 8 6 6 7 7 8 8 12 10 4 5 6 3 3 9 5 8 14 8 5 5 3
8 8 2 4 8 4 6 2 10 18 19 22 22 24 15 19 20 18 17 15 13 10 12 9 9 13 9 7 7 6 7 5 6 9 10 9 6 7 6 2 6 5 7 4 1 3 4 4 3
9 3 0 3 6 7 2 2 8 4 9 22 22 15 18 21 21 20 21 18 17 10 12 10 8 13 10 6 5 3 4 4 7 9 12 12 9 10 2 5 7 8 2 4 1 4 0 3 5
13 6 7 7 8 5 2 4 10 10 5 11 15 15 16 18 19 19 19 18 19 14 14 13 8 13 10 5 4 3 3 3 2 4 11 14 12 12 3 4 5 3 3 2 2 2 5 4 4
11 5 8 8 7 3 6 8 10 9 9 11 14 17 17 18 20 20 20 18 21 18 15 14 13 13 10 9 4 3 3 2 2 4 7 14 14 10 4 4 2 2 3 3 2 3 3 2 2
9 5 6 9 5 7 8 10 11 12 10 8 11 20 19 22 22 19 19 22 21 18 17 13 14 13 10 10 5 2 1 2 2 2 3 6 12 9 5 2 1 2 3 2 2 3 2 2 3
6 10 9 8 6 4 2 11 11 10 6 11 15 11 20 21 20 20 17 22 22 20 17 16 14 15 12 10 7 6 4 4 3 4 3 5 13 11 10 5 3 2 3 1 2 4 3 4 4
6 8 7 6 8 6 8 2 9 8 8 8 10 12 15 22 24 23 21 18 23 21 18 15 14 14 12 12 10 7 5 5 4 4 6 7 6 11 11 8 6 3 3 2 5 2 1 2 1
5 5 8 6 0 4 16 7 13 6 8 8 8 9 10 22 24 23 20 17 17 19 17 15 15 14 13 12 12 11 9 7 5 4 6 4 3 4 6 9 6 6 4 3 4 4 3 1 2
6 3 4 4 2 7 11 0 9 9 11 10 11 11 10 22 23 22 21 18 16 21 19 16 17 15 13 14 12 11 12 11 8 7 5 5 3 3 6 5 5 4 5 4 5 5 4 4 1
6 6 5 5 4 7 8 2 6 7 9 9 10 10 10 21 24 25 23 20 17 22 21 20 20 17 16 15 14 12 11 8 7 6 4 5 6 5 5 6 6 7 8 6 5 3 4 5 4
4 4 10 4 6 4 3 6 7 10 4 4 2 3 10 17 25 25 23 21 18 20 22 21 21 19 18 16 12 13 12 11 7 8 6 6 5 5 6 9 6 4 5 6 5 4 4 5 4
6 5 5 4 2 6 3 4 4 4 8 11 10 13 8 9 24 22 22 21 18 20 20 19 21 21 19 17 14 11 13 11 10 7 10 8 7 6 6 7 7 11 7 7 6 4 4 5 4
2 5 5 2 3 3 4 4 2 6 8 16 17 18 7 11 19 21 19 19 19 18 18 18 19 19 18 17 15 15 13 13 11 7 9 9 7 7 8 8 8 8 7 7 7 7 6 4 4
6 7 6 6 10 4 4 5 6 9 10 5 8 11 10 6 15 19 17 19 18 17 17 17 17 18 18 17 16 15 14 13 13 12 9 8 8 6 7 7 10 8 7 7 7 7 6 5 4
Wind_Direction
278 213 270 35 39 34 271 75 68 52 77 73 76 71 76 118 158 184 133 124 130 137 138 134 130 125 123 128 138 130 132 134 132 131 127 119 116 113 110 109 101 90 89 105 124 115 113 111 103
332 21 33 25 16 314 305 81 67 28 102 103 73 55 28 89 102 120 115 133 130 137 135 137 132 129 127 125 134 135 135 137 137 144 142 136 135 130 127 124 117 102 108 125 136 123 123 124 110
360 68 77 281 262 255 14 74 69 22 78 104 101 130 164 110 124 133 135 128 133 137 136 139 134 131 132 133 136 138 137 138 139 146 150 150 150 147 144 144 144 142 136 138 127 125 133 141 129
59 52 62 224 301 294 40 96 77 41 47 65 105 41 38 135 131 137 134 134 138 130 131 137 133 133 135 134 141 142 140 142 147 149 150 156 161 164 172 166 161 160 156 158 135 125 132 136 139
40 76 139 320 328 249 71 101 97 78 55 67 98 43 96 88 121 136 136 139 132 128 132 137 136 137 137 139 142 141 140 142 143 152 156 166 171 180 184 180 173 165 161 152 152 147 143 144 143
71 77 45 280 231 310 285 130 100 104 145 121 67 134 13 126 138 137 127 125 128 130 136 139 138 140 141 145 143 146 141 146 148 152 156 155 160 162 181 179 174 160 168 171 173 179 159 162 182
147 142 157 295 304 285 57 21 77 84 59 18 107 338 194 146 136 122 121 122 126 130 136 140 143 147 143 140 145 147 145 155 154 151 147 154 157 166 174 177 174 178 178 188 198 211 229 217 224
115 120 150 221 264 255 137 98 119 113 87 107 230 201 172 147 133 116 124 124 130 131 143 146 148 147 145 145 148 149 154 161 158 158 153 159 165 169 171 179 187 196 196 208 219 246 277 284 269
149 114 173 199 245 233 191 97 62 98 109 86 104 17 134 125 133 112 107 115 119 144 150 152 155 158 158 154 156 155 161 169 168 166 160 166 178 187 183 193 198 206 217 229 236 251 264 294 325
107 119 242 9 60 354 87 86 295 45 43 13 44 277 166 141 119 131 131 133 144 153 157 155 155 165 166 162 161 164 166 177 177 173 170 189 206 205 198 203 196 211 226 239 245 249 257 296 281
164 164 22 341 19 304 124 81 94 46 45 257 174 188 164 151 136 139 142 147 160 159 154 159 163 165 169 148 170 172 174 188 199 184 180 197 225 229 199 194 203 211 228 240 241 238 261 38 330
251 160 79 277 321 299 55 134 140 119 233 254 210 175 160 145 149 150 152 145 164 165 174 157 158 164 167 163 181 178 180 196 189 180 185 206 217 226 192 192 214 205 219 267 265 11 24 311 278
297 51 359 304 294 340 103 152 157 201 197 170 214 157 162 154 162 163 158 153 161 172 177 164 164 164 160 178 192 164 157 150 184 199 202 199 211 220 227 208 214 205 119 78 75 56 340 285 240
294 12 285 275 283 331 61 153 122 234 214 169 222 163 161 159 166 162 158 160 163 168 161 166 172 173 155 150 168 156 157 179 194 207 211 218 216 302 254 284 259 115 145 66 90 99 324 296 296
323 294 270 250 188 230 23 220 213 186 197 184 207 172 161 160 164 171 159 159 162 168 172 172 173 166 152 151 159 161 183 174 174 190 213 216 178 322 254 290 292 117 168 105 117 153 189 258 270
290 259 268 208 174 172 161 290 200 175 177 186 83 313 160 167 166 167 162 164 170 169 172 162 168 167 161 156 164 173 163 190 179 190 186 194 172 276 283 311 324 206 108 169 162 181 231 243 317
267 248 150 223 170 186 184 252 293 179 195 139 160 193 156 170 161 167 168 160 168 165 161 163 159 167 164 162 161 174 156 167 205 182 186 196 210 235 276 297 340 351 149 179 125 183 171 200 222
291 350 147 39 232 194 102 15 292 227 187 155 173 190 155 167 171 166 168 167 171 166 165 172 158 168 161 157 151 171 155 196 192 183 177 190 209 241 254 78 2 22 349 72 218 264 307 161 194
277 331 4 296 274 268 171 241 258 267 249 166 175 165 161 161 165 169 169 171 173 164 171 176 159 169 162 159 154 151 186 166 193 212 164 188 206 232 228 152 156 306 250 25 331 298 27 349 88
306 350 312 296 293 344 332 277 263 261 258 186 180 166 168 161 156 169 176 171 171 173 175 181 167 163 165 171 164 148 170 162 183 176 189 193 206 226 204 200 182 71 43 38 4 46 352 327 7
303 246 247 253 287 354 335 304 286 260 228 208 182 174 172 161 165 170 173 179 174 175 179 172 170 167 164 162 148 142 134 86 150 168 191 195 216 218 216 232 221 87 93 312 301 18 15 338 339
284 295 323 349 20 279 280 294 286 273 262 176 173 177 177 164 167 168 171 175 172 179 178 174 171 172 170 156 163 162 171 164 192 189 191 194 203 212 220 205 211 228 159 344 347 43 57 50 10
246 317 310 317 320 331 288 312 271 299 152 178 185 188 176 164 166 170 178 167 171 172 176 170 165 169 167 172 163 171 183 184 186 200 195 198 205 201 207 212 205 197 194 206 123 51 326 104 71
324 340 302 297 240 326 265 192 283 194 159 171 193 200 181 163 168 170 172 171 166 170 172 173 172 174 172 172 173 174 179 191 203 196 201 206 196 204 205 213 203 201 207 210 154 175 211 237 266
289 309 319 332 357 225 275 38 225 151 169 174 187 200 199 159 163 164 167 175 161 171 174 176 178 180 173 180 183 180 188 200 204 201 191 177 179 204 223 213 203 194 214 231 155 168 219 223 223
258 194 169 281 274 273 305 309 295 276 179 165 185 194 184 151 163 168 169 175 172 171 177 177 179 180 182 181 184 183 189 200 211 211 182 186 199 191 197 210 203 190 201 236 221 195 217 214 226
261 260 235 256 283 339 250 309 12 355 96 155 341 92 185 153 165 168 171 176 174 168 172 172 178 181 181 184 179 183 191 197 197 192 188 196 189 202 187 204 181 229 211 212 234 224 228 229 231
186 240 357 336 269 274 347 98 207 287 10 355 359 328 173 144 165 167 171 176 178 173 175 174 174 179 181 182 184 186 192 195 203 187 202 198 195 204 172 199 188 223 212 199 216 232 270 254 258
21 301 302 195 169 205 297 289 250 61 15 9 345 334 263 151 157 168 172 176 178 174 174 178 175 176 180 183 183 189 189 196 202 199 195 195 197 196 175 195 202 204 195 192 196 203 219 243 244
19 15 36 291 327 275 220 255 33 31 17 3 325 328 318 176 155 164 168 172 176 176 179 181 178 178 181 182 185 190 189 192 198 207 189 190 195 195 192 178 194 195 189 200 198 199 218 214 238